Location: Bambrugge
(50.9212°N, 3.9299°E)
Time: 19:08:20
(UTC+00:00)

GP-B - Pass Details

Date: 23 May 2024
Orbit: 624 x 629 km, 89.8° (Epoch: 14 June)

Event Time Altitude Azimuth Distance (km) Brightness Sun altitude
Rises 00:26:57 0° 356° (N) 2,925 8.0 -17.7°
Reaches altitude 10° 00:29:14 10° 350° (N) 2,012 6.7 -17.7°
Maximum altitude 00:33:26 45° 279° (W) 863 3.7 -17.5°
Enters shadow 00:35:09 30° 227° (SW) 1,136 3.9 -17.5°
